Location: The Saddle
(36.8333°N, 80.3417°W)
Time: 09:29:10
(UTC-05:00)

S-56A Canister/Altair - Pass Details

Date: 09 December 2023
Orbit: 640 x 2488 km, 38.9° (Epoch: 25 February)

Event Time Altitude Azimuth Distance (km) Brightness Sun altitude
Rises 10:07:03 0° 238° (WSW) 3,922 11.2 23.3°
Reaches altitude 10° 10:10:13 10° 234° (SW) 2,706 10.5 23.6°
Maximum altitude 10:16:10 55° 158° (SSE) 910 9.1 24.2°
Drops below altitude 10° 10:20:44 10° 80° (E) 2,089 10.1 24.7°
Sets 10:22:54 0° 76° (ENE) 2,950 10.7 24.9°
